Tracking 30995 objects as of 7-Jul-2025
HD Live streaming from Space Station
objects crossing your sky now

THORAD AGENA D DEB

Track THORAD AGENA D DEB now!
10-day predictions


NORAD ID: 4640
Int'l Code: 1970-025Y
Perigee: 1,029.8 km
Apogee: 1,211.3 km
Inclination: 100.0 °
Period: 107.6 minutes
Semi major axis: 7491 km
RCS: 0.0947 m2 (small)
Launch date: April 8, 1970
Source: United States (US)
Launch site: AIR FORCE WESTERN TEST RANGE (AFWTR)

Note: This is SATELLITE DEBRIS
Your satellite tracking list
SHANNON
Track 1 satellite(s)




NASA's NSSDC Master Catalog

Two Line Element Set (TLE):
1 04640U 70025Y   25187.28926433  .00000145  00000-0  33822-3 0  9999
2 04640 100.0129 307.3322 0121081  65.8182 349.2054 13.38891661685790
Source of the keplerian elements: AFSPC